Time,TemperatureF,DewpointF,PressureIn,WindDirection,WindDirectionDegrees,WindSpeedMPH,WindSpeedGustMPH,Humidity,HourlyPrecipIn,Conditions,Clouds,dailyrainin,SoftwareType,DateUTC
2013-03-07 00:00:00,36.0,31.0,-100.00,NNE,16,11.0,27.0,84,-99.99,,,-99.99,,2013-03-07 05:00:00,
2013-03-07 00:23:00,36.0,31.0,-100.00,NNE,16,11.0,27.0,84,-99.99,,,-99.99,,2013-03-07 05:23:00,
2013-03-07 00:32:00,36.0,31.0,-100.00,NNE,16,11.0,27.0,84,-99.99,,,-99.99,,2013-03-07 05:32:00,
2013-03-07 00:42:00,36.0,31.0,-100.00,NNE,16,11.0,27.0,84,-99.99,,,-99.99,,2013-03-07 05:42:00,
2013-03-07 00:52:00,36.0,31.0,-100.00,NNE,16,11.0,27.0,84,-99.99,,,-99.99,,2013-03-07 05:52:00,
2013-03-07 01:00:00,35.0,32.0,-100.00,North,355,9.0,30.0,88,-99.99,,,-99.99,,2013-03-07 06:00:00,
2013-03-07 01:22:00,35.0,32.0,-100.00,North,355,9.0,30.0,88,-99.99,,,-99.99,,2013-03-07 06:22:00,
2013-03-07 01:32:00,35.0,32.0,-100.00,North,355,9.0,30.0,88,-99.99,,,-99.99,,2013-03-07 06:32:00,
2013-03-07 01:42:00,35.0,32.0,-100.00,North,355,9.0,30.0,88,-99.99,,,-99.99,,2013-03-07 06:42:00,
2013-03-07 01:52:00,35.0,32.0,-100.00,North,355,9.0,30.0,88,-99.99,,,-99.99,,2013-03-07 06:52:00,
2013-03-07 02:00:00,35.0,32.0,-100.00,NNE,22,18.0,26.0,87,-99.99,,,-99.99,,2013-03-07 07:00:00,
2013-03-07 02:22:00,35.0,32.0,-100.00,NNE,22,18.0,26.0,87,-99.99,,,-99.99,,2013-03-07 07:22:00,
2013-03-07 02:32:00,35.0,32.0,-100.00,NNE,22,18.0,26.0,87,-99.99,,,-99.99,,2013-03-07 07:32:00,
2013-03-07 02:43:00,35.0,32.0,-100.00,NNE,22,18.0,26.0,87,-99.99,,,-99.99,,2013-03-07 07:43:00,
2013-03-07 02:53:00,35.0,32.0,-100.00,NNE,22,18.0,26.0,87,-99.99,,,-99.99,,2013-03-07 07:53:00,
2013-03-07 03:00:00,36.0,30.0,-100.00,NNE,23,7.0,26.0,80,-99.99,,,-99.99,,2013-03-07 08:00:00,
2013-03-07 03:23:00,36.0,30.0,-100.00,NNE,23,7.0,26.0,80,-99.99,,,-99.99,,2013-03-07 08:23:00,
2013-03-07 03:34:00,36.0,30.0,-100.00,NNE,23,7.0,26.0,80,-99.99,,,-99.99,,2013-03-07 08:34:00,
2013-03-07 03:45:00,36.0,30.0,-100.00,NNE,23,7.0,26.0,80,-99.99,,,-99.99,,2013-03-07 08:45:00,
2013-03-07 03:54:00,36.0,30.0,-100.00,NNE,23,7.0,26.0,80,-99.99,,,-99.99,,2013-03-07 08:54:00,
2013-03-07 04:00:00,37.0,29.0,-100.00,NE,35,17.0,29.0,73,-99.99,,,-99.99,,2013-03-07 09:00:00,
2013-03-07 04:24:00,37.0,29.0,-100.00,NE,35,17.0,29.0,73,-99.99,,,-99.99,,2013-03-07 09:24:00,
2013-03-07 04:33:00,37.0,29.0,-100.00,NE,35,17.0,29.0,73,-99.99,,,-99.99,,2013-03-07 09:33:00,
2013-03-07 04:43:00,37.0,29.0,-100.00,NE,35,17.0,29.0,73,-99.99,,,-99.99,,2013-03-07 09:43:00,
2013-03-07 04:53:00,37.0,29.0,-100.00,NE,35,17.0,29.0,73,-99.99,,,-99.99,,2013-03-07 09:53:00,
2013-03-07 05:00:00,37.0,28.0,-100.00,NNW,343,6.0,26.0,71,-99.99,,,-99.99,,2013-03-07 10:00:00,
2013-03-07 05:24:00,37.0,28.0,-100.00,NNW,343,6.0,26.0,71,-99.99,,,-99.99,,2013-03-07 10:24:00,
2013-03-07 05:33:00,37.0,28.0,-100.00,NNW,343,6.0,26.0,71,-99.99,,,-99.99,,2013-03-07 10:33:00,
2013-03-07 05:43:00,37.0,28.0,-100.00,NNW,343,6.0,26.0,71,-99.99,,,-99.99,,2013-03-07 10:43:00,
2013-03-07 05:53:00,37.0,28.0,-100.00,NNW,343,6.0,26.0,71,-99.99,,,-99.99,,2013-03-07 10:53:00,
2013-03-07 06:00:00,37.0,27.0,-100.00,NNE,19,9.0,23.0,68,-99.99,,,-99.99,,2013-03-07 11:00:00,
2013-03-07 06:34:00,37.0,27.0,-100.00,NNE,19,9.0,23.0,68,-99.99,,,-99.99,,2013-03-07 11:34:00,
2013-03-07 06:44:00,37.0,27.0,-100.00,NNE,19,9.0,23.0,68,-99.99,,,-99.99,,2013-03-07 11:44:00,
2013-03-07 06:55:00,37.0,27.0,-100.00,NNE,19,9.0,23.0,68,-99.99,,,-99.99,,2013-03-07 11:55:00,
2013-03-07 07:00:00,36.0,28.0,-100.00,North,0,16.0,26.0,73,-99.99,,,-99.99,,2013-03-07 12:00:00,
2013-03-07 07:23:00,36.0,28.0,-100.00,North,0,16.0,26.0,73,-99.99,,,-99.99,,2013-03-07 12:23:00,
2013-03-07 07:34:00,36.0,28.0,-100.00,North,0,16.0,26.0,73,-99.99,,,-99.99,,2013-03-07 12:34:00,
2013-03-07 07:43:00,36.0,28.0,-100.00,North,0,16.0,26.0,73,-99.99,,,-99.99,,2013-03-07 12:43:00,
2013-03-07 07:53:00,36.0,28.0,-100.00,North,0,16.0,26.0,73,-99.99,,,-99.99,,2013-03-07 12:53:00,
2013-03-07 08:00:00,36.0,29.0,-100.00,NNE,26,7.0,24.0,77,-99.99,,,-99.99,,2013-03-07 13:00:00,
2013-03-07 08:23:00,36.0,29.0,-100.00,NNE,26,7.0,24.0,77,-99.99,,,-99.99,,2013-03-07 13:23:00,
2013-03-07 08:33:00,36.0,29.0,-100.00,NNE,26,7.0,24.0,77,-99.99,,,-99.99,,2013-03-07 13:33:00,
2013-03-07 08:42:00,36.0,29.0,-100.00,NNE,26,7.0,24.0,77,-99.99,,,-99.99,,2013-03-07 13:42:00,
2013-03-07 08:53:00,36.0,29.0,-100.00,NNE,26,7.0,24.0,77,-99.99,,,-99.99,,2013-03-07 13:53:00,
2013-03-07 09:00:00,36.0,28.0,-100.00,North,2,16.0,26.0,71,-99.99,,,-99.99,,2013-03-07 14:00:00,
2013-03-07 09:23:00,36.0,28.0,-100.00,North,2,16.0,26.0,71,-99.99,,,-99.99,,2013-03-07 14:23:00,
2013-03-07 09:34:00,36.0,28.0,-100.00,North,2,16.0,26.0,71,-99.99,,,-99.99,,2013-03-07 14:34:00,
2013-03-07 09:43:00,36.0,28.0,-100.00,North,2,16.0,26.0,71,-99.99,,,-99.99,,2013-03-07 14:43:00,
2013-03-07 09:54:00,36.0,28.0,-100.00,North,2,16.0,26.0,71,-99.99,,,-99.99,,2013-03-07 14:54:00,
2013-03-07 10:00:00,37.0,30.0,-100.00,North,0,11.0,22.0,76,-99.99,,,-99.99,,2013-03-07 15:00:00,
2013-03-07 10:33:00,37.0,30.0,-100.00,North,0,11.0,22.0,76,-99.99,,,-99.99,,2013-03-07 15:33:00,
2013-03-07 10:43:00,37.0,30.0,-100.00,North,0,11.0,22.0,76,-99.99,,,-99.99,,2013-03-07 15:43:00,
2013-03-07 10:53:00,37.0,30.0,-100.00,North,0,11.0,22.0,76,-99.99,,,-99.99,,2013-03-07 15:53:00,
2013-03-07 11:00:00,38.0,31.0,-100.00,NNW,342,17.0,23.0,76,-99.99,,,-99.99,,2013-03-07 16:00:00,
2013-03-07 11:24:00,38.0,31.0,-100.00,NNW,342,17.0,23.0,76,-99.99,,,-99.99,,2013-03-07 16:24:00,
2013-03-07 11:33:00,38.0,31.0,-100.00,NNW,342,17.0,23.0,76,-99.99,,,-99.99,,2013-03-07 16:33:00,
2013-03-07 11:43:00,38.0,31.0,-100.00,NNW,342,17.0,23.0,76,-99.99,,,-99.99,,2013-03-07 16:43:00,
2013-03-07 11:53:00,38.0,31.0,-100.00,NNW,342,17.0,23.0,76,-99.99,,,-99.99,,2013-03-07 16:53:00,
2013-03-07 12:00:00,36.0,31.0,-100.00,NNW,330,13.0,28.0,82,-99.99,,,-99.99,,2013-03-07 17:00:00,
2013-03-07 12:34:00,36.0,31.0,-100.00,NNW,330,13.0,28.0,82,-99.99,,,-99.99,,2013-03-07 17:34:00,
2013-03-07 12:44:00,36.0,31.0,-100.00,NNW,330,13.0,28.0,82,-99.99,,,-99.99,,2013-03-07 17:44:00,
2013-03-07 12:54:00,36.0,31.0,-100.00,NNW,330,13.0,28.0,82,-99.99,,,-99.99,,2013-03-07 17:54:00,
2013-03-07 13:00:00,36.0,33.0,-100.00,North,7,13.0,21.0,87,-99.99,,,-99.99,,2013-03-07 18:00:00,
2013-03-07 13:22:00,36.0,33.0,-100.00,North,7,13.0,21.0,87,-99.99,,,-99.99,,2013-03-07 18:22:00,
2013-03-07 13:43:00,36.0,33.0,-100.00,North,7,13.0,21.0,87,-99.99,,,-99.99,,2013-03-07 18:43:00,
2013-03-07 13:53:00,36.0,33.0,-100.00,North,7,13.0,21.0,87,-99.99,,,-99.99,,2013-03-07 18:53:00,
2013-03-07 14:00:00,36.0,34.0,-100.00,NW,316,8.0,20.0,89,-99.99,,,-99.99,,2013-03-07 19:00:00,
2013-03-07 14:24:00,36.0,34.0,-100.00,NW,316,8.0,20.0,89,-99.99,,,-99.99,,2013-03-07 19:24:00,
2013-03-07 14:35:00,36.0,34.0,-100.00,NW,316,8.0,20.0,89,-99.99,,,-99.99,,2013-03-07 19:35:00,
2013-03-07 14:44:00,36.0,34.0,-100.00,NW,316,8.0,20.0,89,-99.99,,,-99.99,,2013-03-07 19:44:00,
2013-03-07 14:53:00,36.0,34.0,-100.00,NW,316,8.0,20.0,89,-99.99,,,-99.99,,2013-03-07 19:53:00,
2013-03-07 15:00:00,37.0,33.0,-100.00,NNW,340,11.0,22.0,87,-99.99,,,-99.99,,2013-03-07 20:00:00,
2013-03-07 15:23:00,37.0,33.0,-100.00,NNW,340,11.0,22.0,87,-99.99,,,-99.99,,2013-03-07 20:23:00,
2013-03-07 15:34:00,37.0,33.0,-100.00,NNW,340,11.0,22.0,87,-99.99,,,-99.99,,2013-03-07 20:34:00,
2013-03-07 15:43:00,37.0,33.0,-100.00,NNW,340,11.0,22.0,87,-99.99,,,-99.99,,2013-03-07 20:43:00,
2013-03-07 15:54:00,37.0,33.0,-100.00,NNW,340,11.0,22.0,87,-99.99,,,-99.99,,2013-03-07 20:54:00,
2013-03-07 16:00:00,37.0,33.0,-100.00,NNW,345,10.0,20.0,87,-99.99,,,-99.99,,2013-03-07 21:00:00,
2013-03-07 16:33:00,37.0,33.0,-100.00,NNW,345,10.0,20.0,87,-99.99,,,-99.99,,2013-03-07 21:33:00,
2013-03-07 16:43:00,37.0,33.0,-100.00,NNW,345,10.0,20.0,87,-99.99,,,-99.99,,2013-03-07 21:43:00,
2013-03-07 16:53:00,37.0,33.0,-100.00,NNW,345,10.0,20.0,87,-99.99,,,-99.99,,2013-03-07 21:53:00,
2013-03-07 17:00:00,36.0,33.0,-100.00,NW,309,12.0,18.0,90,-99.99,,,-99.99,,2013-03-07 22:00:00,
2013-03-07 17:23:00,36.0,33.0,-100.00,NW,309,12.0,18.0,90,-99.99,,,-99.99,,2013-03-07 22:23:00,
2013-03-07 17:33:00,36.0,33.0,-100.00,NW,309,12.0,18.0,90,-99.99,,,-99.99,,2013-03-07 22:33:00,
2013-03-07 17:43:00,36.0,33.0,-100.00,NW,309,12.0,18.0,90,-99.99,,,-99.99,,2013-03-07 22:43:00,
2013-03-07 17:55:00,36.0,33.0,-100.00,NW,309,12.0,18.0,90,-99.99,,,-99.99,,2013-03-07 22:55:00,
2013-03-07 18:00:00,35.0,33.0,-100.00,NNW,338,10.0,21.0,91,-99.99,,,-99.99,,2013-03-07 23:00:00,
2013-03-07 18:22:00,35.0,33.0,-100.00,NNW,338,10.0,21.0,91,-99.99,,,-99.99,,2013-03-07 23:22:00,
2013-03-07 18:35:00,35.0,33.0,-100.00,NNW,338,10.0,21.0,91,-99.99,,,-99.99,,2013-03-07 23:35:00,
2013-03-07 18:44:00,35.0,33.0,-100.00,NNW,338,10.0,21.0,91,-99.99,,,-99.99,,2013-03-07 23:44:00,
2013-03-07 18:54:00,35.0,33.0,-100.00,NNW,338,10.0,21.0,91,-99.99,,,-99.99,,2013-03-07 23:54:00,
2013-03-07 19:00:00,35.0,33.0,-100.00,North,0,9.0,21.0,91,-99.99,,,-99.99,,2013-03-08 00:00:00,
2013-03-07 19:23:00,35.0,33.0,-100.00,North,0,9.0,21.0,91,-99.99,,,-99.99,,2013-03-08 00:23:00,
2013-03-07 19:35:00,35.0,33.0,-100.00,North,0,9.0,21.0,91,-99.99,,,-99.99,,2013-03-08 00:35:00,
2013-03-07 19:54:00,35.0,33.0,-100.00,North,0,9.0,21.0,91,-99.99,,,-99.99,,2013-03-08 00:54:00,
2013-03-07 20:00:00,35.0,33.0,-100.00,North,350,7.0,16.0,91,-99.99,,,-99.99,,2013-03-08 01:00:00,
2013-03-07 20:22:00,35.0,33.0,-100.00,North,350,7.0,16.0,91,-99.99,,,-99.99,,2013-03-08 01:22:00,
2013-03-07 20:33:00,35.0,33.0,-100.00,North,350,7.0,16.0,91,-99.99,,,-99.99,,2013-03-08 01:33:00,
2013-03-07 20:42:00,35.0,33.0,-100.00,North,350,7.0,16.0,91,-99.99,,,-99.99,,2013-03-08 01:42:00,
2013-03-07 20:52:00,35.0,33.0,-100.00,North,350,7.0,16.0,91,-99.99,,,-99.99,,2013-03-08 01:52:00,
2013-03-07 21:00:00,34.0,32.0,-100.00,NNW,328,7.0,15.0,92,-99.99,,,-99.99,,2013-03-08 02:00:00,
2013-03-07 21:22:00,34.0,32.0,-100.00,NNW,328,7.0,15.0,92,-99.99,,,-99.99,,2013-03-08 02:22:00,
2013-03-07 21:32:00,34.0,32.0,-100.00,NNW,328,7.0,15.0,92,-99.99,,,-99.99,,2013-03-08 02:32:00,
2013-03-07 21:42:00,34.0,32.0,-100.00,NNW,328,7.0,15.0,92,-99.99,,,-99.99,,2013-03-08 02:42:00,
2013-03-07 21:53:00,34.0,32.0,-100.00,NNW,328,7.0,15.0,92,-99.99,,,-99.99,,2013-03-08 02:53:00,
2013-03-07 23:00:00,33.0,31.0,-100.00,NW,322,3.0,14.0,94,-99.99,,,-99.99,,2013-03-08 04:00:00,
2013-03-07 23:32:00,33.0,31.0,-100.00,NW,322,3.0,14.0,94,-99.99,,,-99.99,,2013-03-08 04:32:00,
2013-03-07 23:42:00,33.0,31.0,-100.00,NW,322,3.0,14.0,94,-99.99,,,-99.99,,2013-03-08 04:42:00,
2013-03-07 23:52:00,33.0,31.0,-100.00,NW,322,3.0,14.0,94,-99.99,,,-99.99,,2013-03-08 04:52:00,